GFSNIL_con_mucape_132.txt.gz
CAPE
1678 2098 762 1167 969 1012 883 1033 1297 1962 1733 1929 2018 1441 2164 2089 1743 1704 1870 2410 2747 1739
1598 1206 1145 1307 1392 1051 1402 1139 1585 1630 1740 1780 2014 1677 1783 1562 1929 1888 2081 1752 2252 2125
1428 1357 1524 1379 1367 1114 1244 1341 1470 1580 1629 1631 1820 1961 1830 1433 2006 2182 1534 1374 1482 2191
1068 1084 1455 1915 1684 1644 1694 1429 1323 1365 1342 1563 1705 1932 2097 1834 1438 1870 1849 1783 1635 2013
965 1055 1034 1430 1491 1571 1967 1075 1345 1256 1172 1293 1503 1749 1908 1802 1441 1501 1686 1664 1663 1632
938 1092 1134 1084 1374 1370 1721 1738 1653 1685 1975 1762 1741 1659 1774 1719 1676 1588 1567 1358 1498 1422
1199 1112 1157 1085 1298 1362 1769 1714 1762 1913 1876 1903 1688 1966 2004 1820 1822 1505 1443 1510 1538 1507
1538 1565 1498 1344 1362 1594 1610 1757 2035 1829 1692 1708 1633 1344 1678 1887 1856 1646 1525 1495 1564 1512
1889 2012 2152 2054 1754 1983 1821 1886 1894 1757 1553 1710 1315 578 413 690 1545 1697 1633 1462 1478 1453
1658 1528 1771 2041 2270 2056 1900 1749 1792 1751 1639 1438 1574 803 541 246 862 1336 1594 1647 2051 1492
1243 1443 1569 1737 2250 1040 2285 2320 1778 1428 1617 1610 1464 967 620 299 298 1258 1491 1436 1475 1199
938 1127 1371 1243 1761 1435 1584 1199 1495 1083 1076 991 895 139 82 76 180 848 833 750 778 389
517 361 291 820 836 399 381 216 167 122 163 112 101 9 0 35 193 291 130 59 45 53
682 431 468 350 156 142 122 97 33 32 41 50 56 23 17 64 94 125 110 66 82 41

GFSNIL_con_mucape_135.txt.gz
CAPE
1743 1371 1375 1623 1936 806 2388 900 2933 2244 1671 1709 2026 1785 1954 2130 1771 2716 1842 2409 3040 2146
1938 1530 1555 1945 1617 1264 2320 1381 1754 1589 1652 1702 1759 1920 1884 1704 1988 1594 2263 1839 2265 2292
1633 1818 1624 1729 1856 1485 1245 1496 1612 1596 1961 1802 1705 1956 2141 2111 2392 1811 1368 953 2592 2077
1040 1262 1948 1468 1371 1618 1595 1556 1513 1676 1766 1586 1731 1980 1925 2862 2282 2057 1972 2025 2155 1921
965 1046 1141 1692 1367 2540 1642 1628 1680 1826 1877 1726 1539 1750 2102 1840 1590 1974 1567 1613 2042 1595
894 924 1080 1892 1416 2165 2564 2262 1232 1683 1831 1735 1684 1925 1916 2070 1767 1989 1915 1590 2325 1541
1146 1042 941 1450 1648 1537 2243 2091 1963 1924 2395 2427 1849 1727 1672 2188 2382 2188 1482 1649 1896 2025
2652 2340 2343 2579 2501 2025 2184 2117 2039 2055 2450 2487 1987 1583 2409 2044 1983 2404 1713 2045 1835 1612
1728 2145 2380 2417 2507 2660 2293 2396 2291 1947 2052 1782 1504 664 596 806 1826 2466 2446 1610 1962 2353
1810 2076 2014 2330 2650 2567 2301 2518 2416 1835 1698 2119 2244 789 472 372 843 941 1535 1844 2385 1868
1421 1615 1765 1840 1854 2551 2919 2994 1278 2342 2048 2255 1535 845 705 523 576 1165 1363 1408 1390 1676
1393 1047 1211 1900 1941 1709 2603 2422 1693 1436 1416 1602 1349 730 668 413 340 655 1244 1076 896 756
714 958 837 733 938 1320 1798 1877 1455 911 898 374 396 340 247 50 75 455 1077 452 350 330
420 335 444 524 504 545 447 517 424 291 185 95 40 18 43 35 37 122 508 201 36 26

GFSNIL_con_mucape_138.txt.gz
CAPE
2542 2164 801 2520 2756 1571 1555 1021 2629 2752 3230 3030 3198 2946 3106 3195 3050 3074 3218 3560 4463 3260
2472 2388 1961 2019 3066 2087 3026 2527 2371 2567 2628 3142 2903 2464 3204 2690 2984 2953 3239 3241 3529 3677
1782 2317 2834 2551 1906 1787 2437 2198 1075 1713 1455 2916 2710 2352 2721 2434 2664 2783 2682 1832 2363 2800
1840 1970 2228 2309 1068 680 2856 2534 2835 1591 781 2554 2194 2932 2718 2781 2677 2249 2319 2457 2420 2392
1747 1661 1920 2100 2466 2673 2858 2522 2346 2431 2113 2162 2535 2711 2927 2354 1911 1750 1978 2133 2162 2782
1275 1952 1883 1765 1813 2064 2358 2742 2420 2775 3067 2837 2684 2571 2748 2697 2290 2393 2406 2007 1802 2135
1798 1309 1507 2280 1936 1640 2082 2139 2347 2732 2729 2882 2667 2625 2428 2382 2338 2077 1840 2044 1814 1918
1892 2307 2777 2761 2742 2428 2122 2195 2372 2128 2091 2555 2151 1489 2018 1861 2659 2363 1535 2075 2094 1672
2175 2666 2839 2838 2825 2506 2349 2378 2902 2641 2581 2202 1569 898 699 1530 1756 1723 1729 1642 1424 1529
2199 2375 2518 2425 2376 2389 2466 2514 2618 2335 1540 1865 2370 1044 831 542 1176 1962 2416 2387 2273 2016
1574 2153 2295 1945 1702 1651 1798 2265 1595 1624 1726 1630 1540 763 734 708 1041 1122 1419 1559 1849 1971
1313 1341 1550 1657 1810 2129 2036 2196 2203 1752 1446 1198 536 522 457 565 1202 1120 957 1173 422 444
358 558 842 1017 875 1227 1159 1537 1735 1679 1284 423 322 408 337 260 190 283 767 1019 388 414
158 178 142 91 97 135 143 188 320 527 430 363 277 265 192 194 56 85 354 243 146 115

GFSNIL_con_mucape_141.txt.gz
CAPE
1066 1006 682 746 1077 788 995 660 857 1509 1547 1762 1925 1740 1218 1868 1525 1858 1735 1533 2314 1719
1336 891 587 613 1373 1421 1127 763 2133 1818 1649 1453 1562 1802 1274 1150 1204 1406 1449 1737 1587 1925
1149 1158 1003 1007 888 1170 1212 1533 1647 1124 1229 1479 1503 1554 1752 1353 1398 1396 1291 1449 1267 962
830 1086 1260 1213 665 645 627 1126 820 833 723 1185 1434 1439 1639 1216 1424 1240 1092 1177 803 1348
564 1093 1125 1067 847 669 481 1062 1326 957 679 390 1141 1142 1086 1309 1179 1209 997 776 756 997
705 1004 1272 1049 1265 1026 1258 1371 1444 1117 1058 957 1175 1300 1263 1533 1554 1466 1548 1420 1196 1032
966 690 778 981 1075 1190 1182 1253 1403 1273 1397 1404 1211 1140 1363 1490 1415 1390 1478 1308 1103 1076
788 715 1053 1182 1010 1192 1170 1128 1016 1114 1232 1425 1679 1662 1453 1478 1518 1390 1241 1203 1139 1150
811 897 712 1192 1151 1092 694 883 949 1183 1176 993 1211 1118 965 927 947 1093 1326 1122 888 754
960 1075 932 894 883 922 991 1199 1218 1221 1284 1453 1504 1151 952 933 802 969 844 899 937 939
419 694 780 769 794 763 844 836 834 1180 1023 878 757 796 647 615 609 558 576 676 657 898
575 499 518 611 540 739 680 662 725 641 577 551 542 427 387 345 305 616 503 402 339 259
161 418 498 523 510 398 431 327 474 492 526 547 448 287 294 232 174 142 69 139 264 267
181 211 215 194 169 144 81 74 55 64 79 75 205 169 108 132 141 115 88 102 146 204

GFSNIL_con_mucape_144.txt.gz
CAPE
1002 857 709 859 685 853 823 536 768 1042 1096 1160 1282 1147 941 1453 1180 1416 1315 1360 1459 1488
769 767 446 933 855 647 748 752 641 592 1166 1098 1349 1313 1001 798 908 1115 930 1042 1346 1156
895 762 649 501 699 1118 853 947 876 1183 1138 1161 1065 1091 1344 1120 821 1102 956 972 1139 897
786 1068 614 769 614 918 995 1222 1196 1352 1190 1137 1173 1287 1236 1338 1039 1096 952 1017 1106 631
693 902 923 933 847 586 643 1071 1112 964 728 746 1156 1201 1143 1210 1134 928 740 656 534 570
819 691 660 791 993 611 472 524 1149 925 880 659 688 873 943 944 1047 973 934 1161 840 768
608 466 639 755 726 730 524 642 824 1178 949 803 679 844 1112 1234 1289 1195 1135 1018 1074 1040
466 516 582 854 915 723 752 807 916 953 1024 1080 1186 1070 976 1017 1167 1063 995 1011 1062 1015
349 433 535 616 743 777 830 855 818 822 790 913 1109 1421 1311 1176 1095 1120 1116 983 891 910
127 279 343 444 803 765 688 716 768 762 768 853 901 897 970 913 804 837 622 910 855 669
40 26 278 381 643 570 574 683 638 658 794 885 961 983 1021 855 825 815 752 846 963 906
7 7 79 416 462 431 533 499 646 787 814 659 586 561 574 543 436 477 499 506 486 406
87 63 141 101 256 315 525 536 577 510 541 539 522 478 414 330 352 280 214 222 191 214
68 130 156 231 316 327 209 201 206 253 287 380 376 393 232 217 248 185 171 169 140 113

GFSNIL_con_mucape_147.txt.gz
CAPE
581 492 581 466 412 427 798 572 730 682 1013 912 901 1045 1041 1329 1315 1317 1342 1158 1169 1373
683 654 609 617 674 519 549 559 644 507 1020 983 1045 1097 927 912 1142 977 1114 866 1087 1100
671 709 655 578 632 778 613 662 677 586 568 870 954 1093 1102 979 625 579 797 778 920 1077
499 630 563 455 547 623 786 702 758 759 723 704 883 960 880 1028 1118 990 807 787 947 963
374 554 642 429 352 433 655 718 852 962 868 940 926 850 953 1018 937 992 930 855 627 571
428 454 693 676 441 576 584 582 800 821 715 623 616 661 795 866 881 961 950 820 816 811
531 534 507 713 621 642 647 460 482 831 760 716 689 592 598 753 830 899 962 989 1017 981
381 551 611 646 625 503 631 689 408 394 841 973 776 756 626 770 1014 1017 1011 1034 1022 998
318 350 405 429 405 505 514 519 522 580 666 902 974 1094 1131 1080 975 981 1146 1124 875 869
133 208 168 228 407 415 401 564 588 595 685 725 756 823 1011 1035 858 974 802 747 620 793
90 88 92 104 187 379 361 372 468 593 679 607 657 670 770 823 820 872 829 851 858 850
112 94 41 39 39 174 367 461 495 433 483 515 569 680 797 846 782 708 610 488 558 575
47 64 20 40 36 64 219 315 266 394 438 567 545 547 688 628 558 501 426 344 383 427
108 77 71 100 64 52 86 126 154 211 441 536 440 398 325 268 282 310 340 298 219 169